VLG5YN EGPH-LEBB

Flight info

Callsign VLG5YN
Flight time 2h 0m
Altitude 37000
Route GOSAM P600 FENIK L612 NAVSO DCT ADZOP DCT EGTOC DCT NOKIN N862 KARNO/N0446F380 DCT ALHUP DCT ABWIV DCT PACSE DCT TONQU DCT SALCO/N0445F370 DCT NENEM N867 MAPAX
Aircraft A320/M-SDE3FGHIRWY/LB1

Departure

Time 2026-04-25 08:24
Airport Edinburgh Airport (EGPH)

Arrival

Time 2026-04-25 10:24
Airport Bilbao Airport (LEBB)
Time Latitude Longitude Altitude Speed Heading
2026-04-25 08:10 55.94702 -3.36617 117 ft 0 kts 89°
2026-04-25 08:16 55.94702 -3.36633 112 ft 4 kts 95°
2026-04-25 08:16 55.94703 -3.36655 115 ft 0 kts 104°
2026-04-25 08:17 55.94706 -3.36667 115 ft 2 kts 96°
2026-04-25 08:17 55.94703 -3.36697 113 ft 2 kts 72°
2026-04-25 08:17 55.94697 -3.36724 113 ft 2 kts 65°
2026-04-25 08:17 55.94687 -3.36745 113 ft 2 kts
2026-04-25 08:18 55.94685 -3.36745 113 ft 0 kts
2026-04-25 08:18 55.94686 -3.36745 113 ft 1 kts
2026-04-25 08:19 55.94727 -3.36738 115 ft 10 kts
2026-04-25 08:19 55.94802 -3.36785 115 ft 12 kts 351°
2026-04-25 08:19 55.94898 -3.36806 113 ft 15 kts 333°
2026-04-25 08:19 55.94907 -3.36957 114 ft 15 kts 239°
2026-04-25 08:20 55.94845 -3.37134 113 ft 18 kts 238°
2026-04-25 08:20 55.94773 -3.37342 115 ft 21 kts 238°
2026-04-25 08:20 55.94694 -3.37583 114 ft 24 kts 238°
2026-04-25 08:20 55.94601 -3.37852 111 ft 27 kts 238°
2026-04-25 08:21 55.94535 -3.38046 112 ft 29 kts 239°
2026-04-25 08:21 55.94391 -3.38472 114 ft 32 kts 239°
2026-04-25 08:21 55.94314 -3.38701 113 ft 19 kts 238°
2026-04-25 08:21 55.94282 -3.38863 114 ft 9 kts 300°
2026-04-25 08:22 55.94320 -3.38901 113 ft 4 kts 328°
2026-04-25 08:22 55.94356 -3.38942 113 ft 9 kts 328°
2026-04-25 08:22 55.94399 -3.38981 114 ft 12 kts 342°
2026-04-25 08:22 55.94433 -3.38922 114 ft 0 kts 60°
2026-04-25 08:23 55.94559 -3.38541 113 ft 72 kts 58°
2026-04-25 08:24 55.94925 -3.37462 112 ft 129 kts 59°
2026-04-25 08:24 55.95436 -3.35860 299 ft 161 kts 63°
2026-04-25 08:24 55.96014 -3.34171 1073 ft 160 kts 50°
2026-04-25 08:24 55.96899 -3.32863 1627 ft 173 kts 38°
2026-04-25 08:25 55.97938 -3.31525 1969 ft 194 kts 38°
2026-04-25 08:25 55.99069 -3.30013 2307 ft 213 kts 38°
2026-04-25 08:25 56.00382 -3.28529 2654 ft 237 kts 18°
2026-04-25 08:25 56.02096 -3.28540 3023 ft 263 kts 339°
2026-04-25 08:26 56.03527 -3.30553 3831 ft 264 kts 300°
2026-04-25 08:26 56.03923 -3.33630 5079 ft 255 kts 264°
2026-04-25 08:26 56.03520 -3.36782 5685 ft 262 kts 256°
2026-04-25 08:26 56.02993 -3.39876 6209 ft 265 kts 253°
2026-04-25 08:27 56.02381 -3.43032 6753 ft 267 kts 251°
2026-04-25 08:27 56.01752 -3.46125 7320 ft 270 kts 251°
2026-04-25 08:27 56.00946 -3.49183 7918 ft 273 kts 244°
2026-04-25 08:27 56.00044 -3.52192 8529 ft 276 kts 244°
2026-04-25 08:28 55.99116 -3.55213 9152 ft 278 kts 244°
2026-04-25 08:28 55.98173 -3.58254 9771 ft 282 kts 243°
2026-04-25 08:28 55.97215 -3.61340 10389 ft 286 kts 243°
2026-04-25 08:28 55.96233 -3.64507 10974 ft 297 kts 244°
2026-04-25 08:29 55.95217 -3.67783 11570 ft 306 kts 243°
2026-04-25 08:29 55.94171 -3.71151 12164 ft 315 kts 243°
2026-04-25 08:29 55.93097 -3.74613 12794 ft 323 kts 243°
2026-04-25 08:29 55.91996 -3.78164 13410 ft 330 kts 243°
2026-04-25 08:30 55.90889 -3.81737 14036 ft 336 kts 243°
2026-04-25 08:30 55.89749 -3.85414 14616 ft 342 kts 243°
2026-04-25 08:30 55.88584 -3.89157 15209 ft 347 kts 243°
2026-04-25 08:30 55.87404 -3.92931 15806 ft 351 kts 243°
2026-04-25 08:31 55.86211 -3.96740 16410 ft 354 kts 242°
2026-04-25 08:31 55.85002 -4.00584 17046 ft 357 kts 242°
2026-04-25 08:31 55.83785 -4.04447 17693 ft 360 kts 242°
2026-04-25 08:31 55.82553 -4.08345 18312 ft 362 kts 241°
2026-04-25 08:32 55.81319 -4.12256 18930 ft 364 kts 242°
2026-04-25 08:32 55.80051 -4.16181 19504 ft 367 kts 238°
2026-04-25 08:32 55.78491 -4.19784 20091 ft 369 kts 227°
2026-04-25 08:32 55.76586 -4.22863 20686 ft 372 kts 217°
2026-04-25 08:33 55.74419 -4.25372 21292 ft 373 kts 206°
2026-04-25 08:33 55.71907 -4.26422 21916 ft 374 kts 181°
2026-04-25 08:33 55.69380 -4.25482 22537 ft 374 kts 155°
2026-04-25 08:33 55.67340 -4.22777 23173 ft 374 kts 130°
2026-04-25 08:34 55.66020 -4.18833 23823 ft 373 kts 117°
2026-04-25 08:34 55.64647 -4.14987 24371 ft 369 kts 136°
2026-04-25 08:34 55.62551 -4.12499 24933 ft 363 kts 162°
2026-04-25 08:34 55.60110 -4.11549 25508 ft 358 kts 171°
2026-04-25 08:35 55.57663 -4.10839 26091 ft 355 kts 172°
2026-04-25 08:35 55.55238 -4.10138 26688 ft 351 kts 172°
2026-04-25 08:35 55.52843 -4.09445 27301 ft 347 kts 172°
2026-04-25 08:35 55.50512 -4.08501 27925 ft 343 kts 159°
2026-04-25 08:36 55.48427 -4.06520 28564 ft 338 kts 151°
2026-04-25 08:36 55.46402 -4.04484 29214 ft 332 kts 153°
2026-04-25 08:36 55.44399 -4.02547 29896 ft 325 kts 153°
2026-04-25 08:36 55.42408 -4.00654 30334 ft 326 kts 153°
2026-04-25 08:37 55.40406 -3.98758 30662 ft 327 kts 153°
2026-04-25 08:37 55.38397 -3.96846 31001 ft 329 kts 153°
2026-04-25 08:37 55.36387 -3.94920 31329 ft 330 kts 153°
2026-04-25 08:37 55.34368 -3.92977 31648 ft 331 kts 153°
2026-04-25 08:38 55.32344 -3.91024 31973 ft 333 kts 153°
2026-04-25 08:38 55.30336 -3.89091 32290 ft 334 kts 153°
2026-04-25 08:38 55.28293 -3.87128 32602 ft 335 kts 153°
2026-04-25 08:38 55.26244 -3.85161 32847 ft 338 kts 153°
2026-04-25 08:39 55.24164 -3.83165 33032 ft 343 kts 153°
2026-04-25 08:39 55.22019 -3.81336 33276 ft 343 kts 160°
2026-04-25 08:39 55.19764 -3.79957 33568 ft 342 kts 165°
2026-04-25 08:39 55.17486 -3.78716 33939 ft 342 kts 165°
2026-04-25 08:40 55.15219 -3.77478 34244 ft 342 kts 165°
2026-04-25 08:40 55.12942 -3.76235 34480 ft 343 kts 165°
2026-04-25 08:40 55.10645 -3.74982 34587 ft 350 kts 165°
2026-04-25 08:41 55.05923 -3.72398 34783 ft 360 kts 164°
2026-04-25 08:41 55.03517 -3.71080 34898 ft 365 kts 164°
2026-04-25 08:41 55.01076 -3.69743 35026 ft 370 kts 164°
2026-04-25 08:41 54.98595 -3.68389 35150 ft 375 kts 164°
2026-04-25 08:42 54.96090 -3.67026 35278 ft 380 kts 164°
2026-04-25 08:42 54.93553 -3.65652 35397 ft 384 kts 164°
2026-04-25 08:42 54.91010 -3.64279 35531 ft 389 kts 164°
2026-04-25 08:42 54.88411 -3.62880 35653 ft 394 kts 164°
2026-04-25 08:43 54.85771 -3.61459 35781 ft 399 kts 164°
2026-04-25 08:43 54.83104 -3.60020 35908 ft 404 kts 164°
2026-04-25 08:43 54.80400 -3.58555 36036 ft 408 kts 163°
2026-04-25 08:43 54.77676 -3.57075 36162 ft 413 kts 163°
2026-04-25 08:44 54.74915 -3.55580 36289 ft 418 kts 163°
2026-04-25 08:44 54.72128 -3.54076 36419 ft 422 kts 164°
2026-04-25 08:44 54.69311 -3.52568 36586 ft 425 kts 164°
2026-04-25 08:44 54.66484 -3.51063 36859 ft 425 kts 164°
2026-04-25 08:45 54.63648 -3.49558 37131 ft 426 kts 164°
2026-04-25 08:45 54.57943 -3.46521 37210 ft 435 kts 164°
2026-04-25 08:46 54.52066 -3.43379 37204 ft 446 kts 163°
2026-04-25 08:46 54.46154 -3.40242 37206 ft 448 kts 164°
2026-04-25 08:47 54.40190 -3.37089 37216 ft 448 kts 164°
2026-04-25 08:47 54.34233 -3.33960 37220 ft 448 kts 164°
2026-04-25 08:48 54.28265 -3.30819 37222 ft 448 kts 164°
2026-04-25 08:48 54.22344 -3.27717 37225 ft 448 kts 164°
2026-04-25 08:49 54.16308 -3.25259 37223 ft 445 kts 176°
2026-04-25 08:49 54.10135 -3.24299 37224 ft 446 kts 176°
2026-04-25 08:50 54.03956 -3.23323 37227 ft 446 kts 176°
2026-04-25 08:50 53.97803 -3.21881 37229 ft 447 kts 169°
2026-04-25 08:51 53.91727 -3.19567 37218 ft 448 kts 169°
2026-04-25 08:51 53.85586 -3.17909 37219 ft 447 kts 174°
2026-04-25 08:52 53.79446 -3.16621 37222 ft 447 kts 175°
2026-04-25 08:52 53.73266 -3.15386 37225 ft 447 kts 175°
2026-04-25 08:53 53.67073 -3.14096 37214 ft 448 kts 174°
2026-04-25 08:53 53.60881 -3.12774 37216 ft 449 kts 174°
2026-04-25 08:54 53.54685 -3.11440 37221 ft 449 kts 174°
2026-04-25 08:54 53.48519 -3.10134 37226 ft 449 kts 174°
2026-04-25 08:55 53.42315 -3.08836 37214 ft 449 kts 174°
2026-04-25 08:55 53.36187 -3.07551 37223 ft 449 kts 174°
2026-04-25 08:56 53.29987 -3.06249 37228 ft 449 kts 174°
2026-04-25 08:56 53.23779 -3.04938 37228 ft 449 kts 174°
2026-04-25 08:57 53.17576 -3.03642 37221 ft 449 kts 175°
2026-04-25 08:57 53.11370 -3.02361 37221 ft 450 kts 175°
2026-04-25 08:58 53.05184 -3.01082 37224 ft 450 kts 175°
2026-04-25 08:58 52.98961 -2.99803 37229 ft 450 kts 175°
2026-04-25 08:59 52.92733 -2.98519 37219 ft 451 kts 175°
2026-04-25 08:59 52.86545 -2.97247 37224 ft 452 kts 175°
2026-04-25 09:00 52.80306 -2.95974 37233 ft 452 kts 175°
2026-04-25 09:00 52.74053 -2.94694 37240 ft 452 kts 175°
2026-04-25 09:01 52.67802 -2.94366 37236 ft 450 kts 185°
2026-04-25 09:01 52.61547 -2.94899 37236 ft 450 kts 185°
2026-04-25 09:02 52.55286 -2.95441 37236 ft 451 kts 185°
2026-04-25 09:02 52.49019 -2.95955 37240 ft 451 kts 185°
2026-04-25 09:03 52.42744 -2.96461 37232 ft 451 kts 185°
2026-04-25 09:03 52.36506 -2.96975 37238 ft 452 kts 185°
2026-04-25 09:04 52.30223 -2.97498 37247 ft 451 kts 185°
2026-04-25 09:04 52.23958 -2.98009 37247 ft 450 kts 185°
2026-04-25 09:05 52.17687 -2.98516 37248 ft 450 kts 185°
2026-04-25 09:05 52.11433 -2.99025 37246 ft 450 kts 185°
2026-04-25 09:06 52.05177 -2.99532 37250 ft 450 kts 185°
2026-04-25 09:06 51.98959 -3.00028 37223 ft 450 kts 184°
2026-04-25 09:07 51.92697 -3.00527 37216 ft 450 kts 185°
2026-04-25 09:07 51.86441 -3.01092 37206 ft 450 kts 186°
2026-04-25 09:08 51.80229 -3.02269 37200 ft 449 kts 190°
2026-04-25 09:08 51.74046 -3.03759 37192 ft 449 kts 190°
2026-04-25 09:09 51.67853 -3.05173 37191 ft 449 kts 189°
2026-04-25 09:09 51.61647 -3.06451 37201 ft 450 kts 188°
2026-04-25 09:10 51.55433 -3.07703 37212 ft 450 kts 189°
2026-04-25 09:10 51.49220 -3.08971 37215 ft 450 kts 189°
2026-04-25 09:11 51.39918 -3.10891 37219 ft 451 kts 189°
2026-04-25 09:11 51.33685 -3.12173 37222 ft 451 kts 189°
2026-04-25 09:12 51.28500 -3.13231 37212 ft 451 kts 189°
2026-04-25 09:12 51.22271 -3.14505 37215 ft 452 kts 189°
2026-04-25 09:13 51.16029 -3.15777 37222 ft 452 kts 189°
2026-04-25 09:13 51.09776 -3.17044 37225 ft 452 kts 188°
2026-04-25 09:14 51.03532 -3.18306 37227 ft 452 kts 189°
2026-04-25 09:14 50.97280 -3.19581 37226 ft 453 kts 189°
2026-04-25 09:15 50.91036 -3.20835 37223 ft 453 kts 188°
2026-04-25 09:15 50.84777 -3.22080 37226 ft 452 kts 188°
2026-04-25 09:16 50.78573 -3.23320 37223 ft 453 kts 188°
2026-04-25 09:16 50.72324 -3.24571 37224 ft 453 kts 188°
2026-04-25 09:17 50.62945 -3.26441 37228 ft 453 kts 189°
2026-04-25 09:18 50.56695 -3.27687 37220 ft 452 kts 189°
2026-04-25 09:18 50.50446 -3.28929 37224 ft 452 kts 189°
2026-04-25 09:19 50.44249 -3.30150 37231 ft 452 kts 188°
2026-04-25 09:19 50.38056 -3.31444 37208 ft 446 kts 193°
2026-04-25 09:20 50.31999 -3.33482 37206 ft 445 kts 193°
2026-04-25 09:20 50.25942 -3.35527 37193 ft 445 kts 194°
2026-04-25 09:21 50.19895 -3.37565 37199 ft 445 kts 193°
2026-04-25 09:21 50.13843 -3.39599 37198 ft 445 kts 193°
2026-04-25 09:22 50.07784 -3.41631 37187 ft 446 kts 194°
2026-04-25 09:22 50.01719 -3.43668 37195 ft 446 kts 194°
2026-04-25 09:23 49.95640 -3.45695 37182 ft 446 kts 193°
2026-04-25 09:23 49.89558 -3.47717 37176 ft 447 kts 193°
2026-04-25 09:24 49.83474 -3.49723 37180 ft 447 kts 193°
2026-04-25 09:24 49.77384 -3.51732 37178 ft 448 kts 193°
2026-04-25 09:25 49.71192 -3.52801 37176 ft 451 kts 179°
2026-04-25 09:25 49.64921 -3.52316 37169 ft 451 kts 179°
2026-04-25 09:26 49.58642 -3.51839 37167 ft 452 kts 179°
2026-04-25 09:26 49.52400 -3.51381 37170 ft 452 kts 179°
2026-04-25 09:27 49.46120 -3.50921 37167 ft 452 kts 179°
2026-04-25 09:27 49.39826 -3.50459 37173 ft 452 kts 179°
2026-04-25 09:28 49.33548 -3.49998 37174 ft 452 kts 179°
2026-04-25 09:28 49.27258 -3.49536 37177 ft 452 kts 179°
2026-04-25 09:29 49.20971 -3.49079 37169 ft 453 kts 179°
2026-04-25 09:29 49.14673 -3.48628 37168 ft 453 kts 179°
2026-04-25 09:30 49.08378 -3.48164 37170 ft 453 kts 179°
2026-04-25 09:30 49.02073 -3.47704 37160 ft 453 kts 179°
2026-04-25 09:31 48.95769 -3.47257 37163 ft 454 kts 179°
2026-04-25 09:31 48.89461 -3.46805 37168 ft 454 kts 179°
2026-04-25 09:32 48.83147 -3.46346 37169 ft 454 kts 179°
2026-04-25 09:32 48.76878 -3.45904 37171 ft 454 kts 179°
2026-04-25 09:33 48.70571 -3.45457 37170 ft 454 kts 179°
2026-04-25 09:33 48.64257 -3.45010 37173 ft 454 kts 179°
2026-04-25 09:34 48.57942 -3.44554 37159 ft 454 kts 179°
2026-04-25 09:34 48.51626 -3.44102 37161 ft 454 kts 179°
2026-04-25 09:35 48.45309 -3.43670 37164 ft 455 kts 179°
2026-04-25 09:35 48.38985 -3.43227 37162 ft 455 kts 179°
2026-04-25 09:36 48.32656 -3.42780 37155 ft 455 kts 179°
2026-04-25 09:36 48.26328 -3.42332 37158 ft 455 kts 179°
2026-04-25 09:37 48.20004 -3.41889 37158 ft 455 kts 179°
2026-04-25 09:37 48.13676 -3.41441 37155 ft 455 kts 179°
2026-04-25 09:38 48.07388 -3.41000 37157 ft 455 kts 179°
2026-04-25 09:38 48.01053 -3.40566 37159 ft 456 kts 179°
2026-04-25 09:39 47.94715 -3.40133 37151 ft 456 kts 179°
2026-04-25 09:39 47.88375 -3.39690 37153 ft 456 kts 179°
2026-04-25 09:40 47.78868 -3.39029 37156 ft 456 kts 179°
2026-04-25 09:40 47.72526 -3.38604 37151 ft 456 kts 179°
2026-04-25 09:41 47.66174 -3.38168 37156 ft 456 kts 179°
2026-04-25 09:41 47.59870 -3.37739 37158 ft 456 kts 179°
2026-04-25 09:42 47.53485 -3.37306 37150 ft 457 kts 179°
2026-04-25 09:42 47.47132 -3.36874 37153 ft 457 kts 179°
2026-04-25 09:43 47.40818 -3.36439 37156 ft 457 kts 179°
2026-04-25 09:43 47.34456 -3.36012 37159 ft 457 kts 179°
2026-04-25 09:44 47.28090 -3.35582 37149 ft 458 kts 179°
2026-04-25 09:44 47.21721 -3.35149 37151 ft 458 kts 179°
2026-04-25 09:45 47.15348 -3.34724 37158 ft 458 kts 179°
2026-04-25 09:45 47.08979 -3.34298 37155 ft 459 kts 179°
2026-04-25 09:46 47.02598 -3.33866 37157 ft 459 kts 179°
2026-04-25 09:46 46.96268 -3.33437 37159 ft 459 kts 179°
2026-04-25 09:47 46.89881 -3.33017 37148 ft 459 kts 179°
2026-04-25 09:47 46.83498 -3.32594 37151 ft 459 kts 179°
2026-04-25 09:48 46.77115 -3.32171 37158 ft 459 kts 179°
2026-04-25 09:48 46.70725 -3.31753 37160 ft 459 kts 179°
2026-04-25 09:49 46.64343 -3.31339 37157 ft 459 kts 179°
2026-04-25 09:49 46.57951 -3.30920 37158 ft 459 kts 179°
2026-04-25 09:50 46.51562 -3.30494 37146 ft 459 kts 179°
2026-04-25 09:50 46.45177 -3.30064 37150 ft 459 kts 179°
2026-04-25 09:51 46.38787 -3.29644 37156 ft 459 kts 179°
2026-04-25 09:51 46.32392 -3.29225 37156 ft 459 kts 179°
2026-04-25 09:52 46.26006 -3.28812 37148 ft 459 kts 179°
2026-04-25 09:52 46.19615 -3.28402 37152 ft 459 kts 179°
2026-04-25 09:53 46.13226 -3.27997 37152 ft 459 kts 179°
2026-04-25 09:53 46.06840 -3.27573 37151 ft 459 kts 179°
2026-04-25 09:54 46.00494 -3.27158 37155 ft 459 kts 179°
2026-04-25 09:54 45.94110 -3.26753 37154 ft 459 kts 179°
2026-04-25 09:55 45.87722 -3.26350 37151 ft 459 kts 179°
2026-04-25 09:55 45.81340 -3.25939 37153 ft 459 kts 179°
2026-04-25 09:56 45.74961 -3.25529 37159 ft 459 kts 179°
2026-04-25 09:56 45.68584 -3.25113 37155 ft 459 kts 179°
2026-04-25 09:57 45.62209 -3.24708 37160 ft 458 kts 179°
2026-04-25 09:57 45.55837 -3.24312 37161 ft 458 kts 179°
2026-04-25 09:58 45.50543 -3.23980 37158 ft 458 kts 179°
2026-04-25 09:58 45.43106 -3.23516 37128 ft 458 kts 179°
2026-04-25 09:59 45.39957 -3.23313 36618 ft 456 kts 179°
2026-04-25 09:59 45.36791 -3.23107 36078 ft 457 kts 179°
2026-04-25 09:59 45.33607 -3.22903 35546 ft 459 kts 179°
2026-04-25 09:59 45.30421 -3.22703 35032 ft 459 kts 179°
2026-04-25 10:00 45.28260 -3.22568 34690 ft 460 kts 179°
2026-04-25 10:00 45.25064 -3.22370 34190 ft 459 kts 179°
2026-04-25 10:00 45.21871 -3.22171 33620 ft 459 kts 179°
2026-04-25 10:00 45.18689 -3.21974 33055 ft 458 kts 179°
2026-04-25 10:01 45.15544 -3.21781 32512 ft 458 kts 179°
2026-04-25 10:01 45.12372 -3.21583 31956 ft 454 kts 180°
2026-04-25 10:01 45.09190 -3.21382 31417 ft 450 kts 180°
2026-04-25 10:01 45.06104 -3.21186 30901 ft 449 kts 180°
2026-04-25 10:02 45.02990 -3.20986 30393 ft 448 kts 180°
2026-04-25 10:02 44.99880 -3.20780 29823 ft 448 kts 179°
2026-04-25 10:02 44.96800 -3.19949 29232 ft 454 kts 167°
2026-04-25 10:02 44.93745 -3.18815 28646 ft 454 kts 170°
2026-04-25 10:03 44.90659 -3.17839 28081 ft 455 kts 171°
2026-04-25 10:03 44.87592 -3.16674 27528 ft 458 kts 166°
2026-04-25 10:03 44.84553 -3.15347 27024 ft 456 kts 166°
2026-04-25 10:03 44.81527 -3.14025 26567 ft 454 kts 166°
2026-04-25 10:04 44.78482 -3.12916 26124 ft 450 kts 170°
2026-04-25 10:04 44.75429 -3.11959 25677 ft 449 kts 169°
2026-04-25 10:04 44.72398 -3.10923 25244 ft 447 kts 168°
2026-04-25 10:04 44.69382 -3.09892 24815 ft 445 kts 168°
2026-04-25 10:05 44.66376 -3.08874 24394 ft 443 kts 168°
2026-04-25 10:05 44.63383 -3.07872 23978 ft 441 kts 168°
2026-04-25 10:05 44.60401 -3.06883 23530 ft 439 kts 168°
2026-04-25 10:05 44.57431 -3.05907 23036 ft 438 kts 168°
2026-04-25 10:06 44.54471 -3.04945 22546 ft 435 kts 169°
2026-04-25 10:06 44.51530 -3.03989 22069 ft 433 kts 168°
2026-04-25 10:06 44.48594 -3.03040 21611 ft 431 kts 168°
2026-04-25 10:06 44.45674 -3.02103 21152 ft 430 kts 168°
2026-04-25 10:07 44.42806 -3.01189 20708 ft 428 kts 169°
2026-04-25 10:07 44.39904 -3.00262 20265 ft 426 kts 169°
2026-04-25 10:07 44.37013 -2.99340 19823 ft 424 kts 168°
2026-04-25 10:07 44.34142 -2.98433 19395 ft 422 kts 169°
2026-04-25 10:08 44.31276 -2.97535 18966 ft 421 kts 169°
2026-04-25 10:08 44.28415 -2.96650 18550 ft 420 kts 169°
2026-04-25 10:08 44.25561 -2.95757 18082 ft 418 kts 168°
2026-04-25 10:08 44.22732 -2.94875 17607 ft 416 kts 169°
2026-04-25 10:09 44.19917 -2.93988 17149 ft 413 kts 169°
2026-04-25 10:09 44.17126 -2.93082 16756 ft 411 kts 168°
2026-04-25 10:09 44.14355 -2.92151 16377 ft 408 kts 168°
2026-04-25 10:09 44.11600 -2.91236 16005 ft 406 kts 168°
2026-04-25 10:10 44.08863 -2.90337 15635 ft 404 kts 167°
2026-04-25 10:10 44.06136 -2.89416 15269 ft 402 kts 167°
2026-04-25 10:10 44.03421 -2.88505 14907 ft 400 kts 168°
2026-04-25 10:10 44.00728 -2.87575 14551 ft 398 kts 167°
2026-04-25 10:11 43.98079 -2.86673 14200 ft 395 kts 167°
2026-04-25 10:11 43.95413 -2.85781 13830 ft 392 kts 168°
2026-04-25 10:11 43.92794 -2.84896 13437 ft 381 kts 167°
2026-04-25 10:11 43.90251 -2.84045 13039 ft 370 kts 167°
2026-04-25 10:12 43.87783 -2.83218 12656 ft 360 kts 167°
2026-04-25 10:12 43.85377 -2.82381 12283 ft 351 kts 167°
2026-04-25 10:12 43.80739 -2.80771 11537 ft 338 kts 168°
2026-04-25 10:13 43.78518 -2.79968 11174 ft 333 kts 168°
2026-04-25 10:13 43.76243 -2.79164 10809 ft 330 kts 167°
2026-04-25 10:13 43.74020 -2.78400 10446 ft 328 kts 168°
2026-04-25 10:13 43.71814 -2.77619 10090 ft 326 kts 167°
2026-04-25 10:14 43.69629 -2.76862 9699 ft 322 kts 168°
2026-04-25 10:14 43.67465 -2.76131 9310 ft 318 kts 168°
2026-04-25 10:14 43.65332 -2.75392 8962 ft 314 kts 168°
2026-04-25 10:14 43.63226 -2.74664 8661 ft 309 kts 167°
2026-04-25 10:15 43.61186 -2.73950 8363 ft 304 kts 168°
2026-04-25 10:15 43.59148 -2.73260 8051 ft 297 kts 168°
2026-04-25 10:15 43.57193 -2.72599 7757 ft 282 kts 167°
2026-04-25 10:15 43.55306 -2.72077 7466 ft 275 kts 172°
2026-04-25 10:16 43.53413 -2.71657 7174 ft 274 kts 173°
2026-04-25 10:16 43.51562 -2.71267 6885 ft 264 kts 173°
2026-04-25 10:16 43.49785 -2.70911 6601 ft 253 kts 173°
2026-04-25 10:16 43.48076 -2.70559 6290 ft 244 kts 173°
2026-04-25 10:17 43.46422 -2.70217 5989 ft 239 kts 172°
2026-04-25 10:17 43.44789 -2.69884 5690 ft 236 kts 173°
2026-04-25 10:17 43.43162 -2.69558 5397 ft 236 kts 173°
2026-04-25 10:17 43.41540 -2.69230 5090 ft 235 kts 173°
2026-04-25 10:18 43.39918 -2.68905 4785 ft 236 kts 173°
2026-04-25 10:18 43.38285 -2.68587 4404 ft 238 kts 173°
2026-04-25 10:18 43.36648 -2.68261 3980 ft 244 kts 173°
2026-04-25 10:18 43.35004 -2.68056 3669 ft 228 kts 181°
2026-04-25 10:19 43.33482 -2.68148 3440 ft 211 kts 189°
2026-04-25 10:19 43.32083 -2.68440 3398 ft 197 kts 195°
2026-04-25 10:19 43.30748 -2.68837 3318 ft 194 kts 195°
2026-04-25 10:19 43.29432 -2.69262 3160 ft 193 kts 199°
2026-04-25 10:20 43.28189 -2.69905 2927 ft 189 kts 208°
2026-04-25 10:20 43.27137 -2.70949 2614 ft 187 kts 227°
2026-04-25 10:20 43.26480 -2.72461 2248 ft 184 kts 256°
2026-04-25 10:20 43.26470 -2.74154 2010 ft 171 kts 281°
2026-04-25 10:21 43.26688 -2.75691 1708 ft 158 kts 281°
2026-04-25 10:21 43.26855 -2.77097 1600 ft 144 kts 280°
2026-04-25 10:21 43.26976 -2.78433 1418 ft 139 kts 276°
2026-04-25 10:21 43.27039 -2.79750 1216 ft 137 kts 273°
2026-04-25 10:22 43.27105 -2.81046 1089 ft 136 kts 277°
2026-04-25 10:22 43.27230 -2.82330 1030 ft 136 kts 284°
2026-04-25 10:22 43.27503 -2.83573 958 ft 135 kts 291°
2026-04-25 10:22 43.27852 -2.84768 850 ft 134 kts 294°
2026-04-25 10:23 43.28233 -2.85921 781 ft 135 kts 295°
2026-04-25 10:23 43.28636 -2.87092 672 ft 136 kts 298°
2026-04-25 10:23 43.29073 -2.88222 506 ft 134 kts 298°
2026-04-25 10:23 43.29483 -2.89366 306 ft 134 kts 298°
2026-04-25 10:24 43.29904 -2.90499 142 ft 132 kts 298°
2026-04-25 10:24 43.30257 -2.91464 125 ft 90 kts 297°
2026-04-25 10:24 43.30435 -2.91929 123 ft 30 kts 310°
2026-04-25 10:24 43.30593 -2.92034 132 ft 17 kts 348°
2026-04-25 10:25 43.30611 -2.91924 132 ft 16 kts 114°
2026-04-25 10:25 43.30557 -2.91769 132 ft 20 kts 116°
2026-04-25 10:25 43.30491 -2.91588 132 ft 23 kts 116°
2026-04-25 10:25 43.30415 -2.91380 132 ft 26 kts 116°
2026-04-25 10:26 43.30330 -2.91145 132 ft 29 kts 116°
2026-04-25 10:26 43.30320 -2.91025 132 ft 7 kts 16°
2026-04-25 10:26 43.30371 -2.90996 132 ft 9 kts 27°
2026-04-25 10:26 43.30427 -2.90941 132 ft 9 kts 80°
2026-04-25 10:27 43.30413 -2.90846 132 ft 12 kts 95°
2026-04-25 10:27 43.30386 -2.90729 132 ft 14 kts 116°
2026-04-25 10:27 43.30348 -2.90625 132 ft 3 kts 117°
2026-04-25 10:27 43.30315 -2.90585 132 ft 9 kts 146°
2026-04-25 10:28 43.30279 -2.90439 132 ft 0 kts 57°